Showing default

VIGORIDE 7, 68473

Orbit data source: Space-Track

VIGORIDE 7, 68473 is a payload satellite owned by Momentus (US) in SSO that was launched on Mon, 30 Mar 2026 UTC via an FALCON 9 launch vehicle from the Air Force Western Test Range (AFWTR). Payload-class satellites include a variety of spacecraft equipped with specific instruments for various scientific and technological missions. These include communications satellites like Starlink; space stations such as the ISS; scientific satellites like the Hubble; Earth observation satellites from companies like Planet Labs, Umbra, and HawkEye 360; GPS; miniature CubeSats for education and research; and military/defense satellites.

Loading next visibility...
Identifier
68473, 2026-067BK
Orbit
SSO
Country
Flag of USUS
Related business
Manufacturer
Momentus
Mission
Operational Commercial Technology
Bus & Motor
VIGORIDE, AOCS
Mass
363 kg wet, 292 kg dry
Launch date (UTC)
2026-03-30 (6 months ago)
Launch vehicle
FALCON 9
Launch site
Air Force Western Test Range (AFWTR)
Object type
Payload
Rocket body
Debris
Shape & HBR
Box, 3.3 m
Radar Cross Section
0.725 m², Large (>1 m²)

Expand to show TLE details & history
Last TLE update: 6 hours ago

TLE from 6 hours ago
0 VIGORIDE 7
1 68473U 26067BK  26263.12516676  .00006275  00000-0  26438-3 0  9998
2 68473  97.4639 221.1377 0009665 163.5936 196.5615 15.23654350 26386
Epoch: 2026-09-20T03:00Z
TLE epoch observation values (Epoch: 2026-09-20T03:00:14.408Z)
Latitude
-0.00006°
Longitude
177.05383°
Altitude
504.292 km
Speed
7.609 km/s
True Right ascension
14h 44m 33s
True Declination
0° 00' 00"
Sunlit
Object was in daylight at epoch
Visualization orbit readout
Latitude
Unknown
Longitude
Unknown
Altitude
Unknown
Speed
Unknown
Apparent Right ascension
Unknown
Apparent Declination
Unknown
Sunlit
N/A
Visualization observer readout
Local Sidereal Time
02:08:20
Azimuth
Unknown
Elevation
Unknown
Doppler factor
Unknown
Orbital elements
Apogee altitude
498.432 km
Perigee altitude
485.153 km
Semi-major axis
6,869.93 km
Eccentricity
0.00097
Inclination
97.4639°
RAAN
221.1377°
Arg. of periapsis
163.5936°
True anomaly
196.52997°
Mean anomaly
196.5615°
Eccentric anomaly
196.54573°
Mean motion
3.81167 °/min
Orbital period
94.45 mins
BSTAR
0.00026438
Loading maneuver chart data...
Computing Atmospheric mass density...
Loading historical data...
Loading historical data...
Loading historical data...
Loading historical data...
Loading historical data...
Loading historical data...
Loading historical data...

Documentation

Showing up to 5 results
|